Location: Kalberh�ni
(46.4610°N, 7.2453°E)
Time: 02:44:56
(UTC+00:00)

Meteor 2-10 Rocket - Visible Passes

Search period start: 23 October 2021 00:00
Search period end: 02 November 2021 00:00
Orbit: 733 x 885 km, 81.2° (Epoch: 22 October)

Date Brightness Start Highest point End Pass type
(mag) Time Alt. Az. Time Alt. Az. Time Alt. Az.
23 Oct 4.1 04:49:35 10° N 04:54:35 58° ENE 04:59:30 10° SSE visible
23 Oct 3.7 17:54:23 10° S 17:59:48 54° E 18:05:01 10° NNE visible
23 Oct 5.8 19:37:48 10° WSW 19:42:10 23° WNW 19:46:26 10° NNW visible
24 Oct 4.8 04:25:20 10° N 04:30:07 41° ENE 04:34:51 10° SE visible
24 Oct 4.0 17:30:25 10° SSE 17:35:31 39° E 17:40:28 10° NNE visible
24 Oct 5.4 19:12:46 10° SW 19:17:38 31° WNW 19:22:21 10° N visible
25 Oct 5.3 04:01:11 10° N 04:05:37 30° ENE 04:10:01 10° SE visible
25 Oct 4.4 17:06:37 10° SSE 17:11:16 29° E 17:15:47 10° NNE visible
25 Oct 4.8 18:47:57 10° SW 18:53:09 41° WNW 18:58:11 10° N visible
26 Oct 5.8 03:37:08 10° NNE 03:41:04 22° ENE 03:44:58 10° ESE visible
26 Oct 3.7 05:18:35 10° NNW 05:23:25 48° W 05:28:11 10° SSW visible
26 Oct 4.2 18:23:18 10° SSW 18:28:42 56° WNW 18:33:55 10° N visible
27 Oct 6.2 03:13:17 10° NNE 03:16:28 17° ENE 03:19:38 10° ESE visible
27 Oct 3.4 04:54:05 10° NNW 04:59:05 68° W 05:04:03 10° S visible
27 Oct 3.7 17:58:48 10° SSW 18:04:18 77° WNW 18:09:36 10° N visible
27 Oct 6.6 19:45:14 10° W 19:47:15 12° WNW 19:49:15 10° NW visible
28 Oct 6.5 02:49:50 10° NE 02:51:49 12° ENE 02:53:47 10° E visible
28 Oct 3.4 04:29:40 10° N 04:34:43 86° E 04:39:44 10° S visible
28 Oct 3.5 17:34:27 10° S 17:39:55 79° E 17:45:12 10° NNE visible
28 Oct 6.3 19:19:18 10° W 19:22:36 16° WNW 19:25:50 10° NNW visible
29 Oct 3.9 04:05:19 10° N 04:10:19 62° ENE 04:15:17 10° SSE visible
29 Oct 3.6 17:10:17 10° S 17:15:36 57° E 17:20:44 10° NNE visible
29 Oct 6.0 18:53:55 10° WSW 18:58:00 21° WNW 19:02:00 10° NNW visible
30 Oct 4.5 03:41:03 10° N 03:45:52 44° ENE 03:50:39 10° SE visible
30 Oct 4.5 05:23:43 10° NW 05:27:36 23° W 05:31:30 10° SW visible
30 Oct 4.0 16:46:15 10° SSE 16:51:18 41° E 16:56:11 10° NNE visible
30 Oct 5.5 18:28:51 10° SW 18:33:28 28° WNW 18:37:58 10° N visible
31 Oct 5.1 03:16:52 10° N 03:21:22 32° ENE 03:25:51 10° SE visible
31 Oct 4.1 04:58:58 10° NNW 05:03:22 32° W 05:07:48 10° SSW visible
31 Oct 5.0 18:03:58 10° SW 18:08:57 38° WNW 18:13:49 10° N visible
01 Nov 5.6 02:52:47 10° NNE 02:56:50 24° ENE 03:00:51 10° ESE visible
01 Nov 3.7 04:34:21 10° NNW 04:39:06 45° W 04:43:52 10° SSW visible
01 Nov 4.4 17:39:16 10° SSW 17:44:30 52° WNW 17:49:35 10° N visible
